1512810001.24,6808,4.94,71884.8,-10.33,-12.47,-12.35,0,*52
1512810002.47,6809,4.94,71886.0,-10.33,-12.47,-12.29,0,*5E
1512810003.68,6810,4.94,71886.0,-10.35,-12.43,-12.29,0,*54
1512810004.95,6811,4.94,71884.0,-10.33,-12.35,-12.21,0,*5A
1512810006.2,6812,4.94,71886.0,-10.33,-12.43,-12.15,0,*5F
1512810007.42,6813,4.94,71884.3,-10.35,-12.29,-12.29,0,*5B
1512810008.66,6814,4.94,71882.3,-10.35,-12.29,-12.11,0,*57
1512810009.88,6815,4.94,71882.0,-10.35,-12.21,-12.03,0,*5D
1512810011.12,6816,4.94,71882.5,-10.35,-12.29,-12.35,0,*53
1512810012.36,6817,4.94,71882.5,-10.35,-12.47,-12.35,0,*5A
1512810013.6,6818,4.94,71880.0,-10.35,-12.35,-12.29,0,*5D
1512810014.81,6819,4.94,71884.0,-10.35,-12.43,-12.29,0,*5D
1512810016.03,6820,4.94,71884.5,-10.35,-12.29,-12.03,0,*53
1512810017.26,6821,4.94,71884.0,-10.35,-12.11,-12.03,0,*59
1512810018.52,6822,4.94,71884.8,-10.33,-12.03,-11.89,0,*5E
1512810019.78,6823,4.94,71884.0,-10.33,-12.03,-11.89,0,*5F
1512810021.07,6824,4.94,71886.3,-10.33,-12.11,-11.97,0,*54
1512810022.28,6825,4.94,71884.8,-10.35,-12.03,-12.03,0,*5E
1512810023.52,6826,4.94,71884.3,-10.35,-12.03,-11.89,0,*5C
1512810024.78,6827,4.94,71880.0,-10.35,-12.11,-11.89,0,*5E
1512810026.06,6828,4.94,71882.5,-10.33,-12.11,-11.97,0,*58
1512810027.32,6829,4.94,71884.8,-10.33,-12.03,-11.97,0,*5A
1512810028.58,6830,4.94,71886.8,-10.33,-12.03,-11.89,0,*5D
1512810029.84,6831,4.94,71886.0,-10.31,-11.93,-11.81,0,*5C
1512810031.1,6832,4.94,71884.0,-10.31,-12.07,-11.93,0,*52
1512810032.36,6833,4.94,71882.8,-10.31,-12.11,-11.97,0,*50
1512810033.6,6834,4.94,71884.8,-10.33,-12.03,-12.03,0,*58
1512810034.86,6835,4.94,71884.8,-10.31,-11.97,-11.93,0,*5F
1512810036.14,6836,4.94,71880.5,-10.33,-12.11,-11.97,0,*57
1512810037.4,6837,4.94,71882.8,-10.31,-12.07,-11.93,0,*57
1512810038.66,6838,4.94,71888.3,-10.33,-12.03,-11.89,0,*55
1512810039.95,6839,5.0,71888.0,-10.33,-11.97,-11.85,0,*56
1512810041.2,6840,4.94,71886.3,-10.31,-11.97,-11.81,0,*5E
1512810042.46,6841,4.94,71884.8,-10.31,-11.97,-11.93,0,*5C
1512810043.72,6842,4.94,71888.3,-10.31,-12.11,-12.07,0,*5C
1512810044.98,6843,4.94,71888.0,-10.31,-12.11,-11.97,0,*57
1512810046.21,6844,4.94,71890.3,-10.31,-12.25,-11.97,0,*57
1512810047.47,6845,4.94,71888.0,-10.31,-12.11,-12.07,0,*5B
1512810048.73,6846,4.94,71894.0,-10.31,-12.07,-11.97,0,*55
1512810049.99,6847,4.94,71890.5,-10.31,-12.11,-11.97,0,*53
1512810051.25,6848,4.94,71888.5,-10.31,-12.07,-11.97,0,*5B
1512810052.51,6849,4.94,71888.5,-10.31,-12.15,-12.11,0,*54
1512810053.76,6850,4.94,71890.0,-10.31,-12.11,-11.97,0,*55
1512810055.02,6851,4.94,71886.5,-10.31,-12.15,-12.07,0,*5A
1512810056.28,6852,4.94,71890.5,-10.31,-11.97,-11.93,0,*5E
1512810057.57,6853,4.94,71890.0,-10.33,-12.11,-11.97,0,*54
1512810058.83,6854,4.94,71888.0,-10.31,-12.15,-11.97,0,*55
1512810060.09,6855,4.94,71888.3,-10.31,-12.07,-11.93,0,*53
1512810061.35,6856,4.94,71890.0,-10.31,-11.97,-11.93,0,*5A
1512810062.61,6857,4.94,71890.5,-10.31,-12.07,-11.97,0,*55
1512810063.87,6858,4.94,71892.0,-10.31,-11.97,-11.93,0,*54
1512810065.13,6859,4.94,71890.3,-10.31,-11.97,-11.93,0,*55
1512810066.42,6860,4.94,71888.3,-10.29,-12.07,-11.93,0,*5C
1512810067.71,6861,4.94,71890.8,-10.29,-12.11,-11.97,0,*5E
1512810068.96,6862,4.94,71888.0,-10.31,-12.11,-11.97,0,*54
1512810070.22,6863,4.94,71890.5,-10.31,-12.07,-11.97,0,*52
1512810071.48,6864,4.94,71886.3,-10.31,-12.15,-11.97,0,*56
1512810072.74,6865,4.94,71884.8,-10.31,-12.15,-11.97,0,*57
1512810074.0,6866,4.94,71888.3,-10.31,-11.97,-11.93,0,*59
1512810075.26,6867,4.94,71888.0,-10.31,-11.97,-11.93,0,*58
1512810076.52,6868,4.94,71888.3,-10.31,-11.93,-11.81,0,*50
1512810077.81,6869,4.94,71888.3,-10.29,-11.97,-11.93,0,*5F
1512810079.09,6870,4.94,71888.3,-10.29,-11.97,-11.85,0,*50
1512810080.35,6871,4.94,71890.8,-10.27,-11.93,-11.77,0,*56
1512810081.64,6872,4.94,71888.5,-10.29,-11.97,-11.93,0,*55
1512810082.9,6873,4.94,71890.5,-10.27,-11.93,-11.81,0,*5D
1512810084.19,6874,4.94,71890.0,-10.29,-12.07,-11.85,0,*5E
1512810085.42,6875,4.94,71890.5,-10.27,-12.03,-11.89,0,*59
1512810086.66,6876,4.94,71888.3,-10.27,-12.03,-11.89,0,*5A
1512810087.92,6877,4.94,71886.8,-10.27,-12.35,-12.07,0,*5B
1512810089.15,6878,4.94,71888.8,-10.27,-12.25,-12.11,0,*52
1512810090.42,6879,4.94,71890.5,-10.29,-12.25,-12.15,0,*59
1512810091.68,6880,4.94,71888.5,-10.29,-12.29,-12.11,0,*57
1512810092.97,6881,4.94,71888.5,-10.29,-12.15,-12.11,0,*59
1512810094.21,6882,4.94,71894.3,-10.27,-12.35,-12.25,0,*51
1512810095.44,6883,4.94,71888.3,-10.29,-12.43,-12.29,0,*53
1512810096.68,6884,4.94,71892.0,-10.29,-12.39,-12.25,0,*55
1512810097.94,6885,4.94,71888.0,-10.29,-12.29,-12.11,0,*52
1512810099.2,6886,4.94,71892.5,-10.29,-12.39,-12.15,0,*54
1512810100.46,6887,4.94,71888.0,-10.29,-12.39,-12.15,0,*55
1512810101.72,6888,4.94,71886.8,-10.29,-12.29,-12.15,0,*5B
1512810102.96,6889,4.94,71890.3,-10.31,-12.29,-12.15,0,*53
1512810104.19,6890,4.94,71888.0,-10.31,-12.29,-12.11,0,*5F
1512810105.43,6891,4.94,71890.3,-10.31,-12.29,-12.15,0,*5A
1512810106.66,6892,4.94,71890.0,-10.31,-12.29,-12.15,0,*59
1512810107.92,6893,4.94,71892.3,-10.31,-12.15,-11.97,0,*5E
1512810109.18,6894,4.94,71888.0,-10.31,-12.15,-12.07,0,*53
1512810110.43,6895,4.94,71888.5,-10.31,-11.73,-11.81,0,*5C
1512810111.69,6896,4.94,71888.8,-10.31,-11.97,-11.93,0,*56
1512810112.95,6897,4.94,71890.0,-10.31,-12.07,-11.93,0,*5D
1512810114.21,6898,4.94,71890.0,-10.31,-12.07,-11.93,0,*52
1512810115.47,6899,4.94,71884.3,-10.31,-12.11,-11.97,0,*50
1512810116.74,6900,4.94,71890.8,-10.33,-12.21,-12.11,0,*5D
1512810117.99,6901,4.94,71892.8,-10.31,-12.15,-11.97,0,*54
1512810119.28,6902,4.94,71888.5,-10.29,-12.11,-11.97,0,*5A
1512810120.57,6903,4.94,71892.0,-10.29,-12.11,-11.97,0,*5B
1512810121.86,6904,4.94,71892.5,-10.29,-12.07,-11.97,0,*5B
1512810123.14,6905,4.94,71890.8,-10.29,-12.15,-12.07,0,*53
1512810124.43,6906,4.94,71892.3,-10.29,-12.15,-12.07,0,*50
1512810125.67,6907,4.94,71890.8,-10.29,-12.43,-12.29,0,*5E
1512810126.91,6908,4.94,71890.3,-10.29,-12.39,-12.25,0,*50
1512810128.14,6909,4.94,71890.8,-10.31,-12.25,-12.11,0,*52
1512810129.38,6910,4.94,71892.0,-10.27,-12.07,-12.03,0,*5E
1512810130.64,6911,4.94,71890.8,-10.29,-12.25,-12.11,0,*52
1512810131.9,6912,4.94,71890.3,-10.29,-12.39,-12.15,0,*58
1512810133.16,6913,4.94,71888.0,-10.31,-12.15,-12.15,0,*5E
1512810134.39,6914,4.94,71892.0,-10.31,-12.29,-12.15,0,*56
1512810135.63,6915,4.94,71888.3,-10.31,-12.29,-12.15,0,*57
1512810136.83,6916,4.94,71892.5,-10.31,-12.39,-12.29,0,*5A
1512810138.09,6917,4.94,71892.0,-10.31,-12.15,-12.07,0,*59
1512810139.35,6918,4.94,71894.0,-10.31,-12.15,-12.07,0,*56
1512810140.61,6919,4.94,71892.8,-10.31,-12.15,-12.07,0,*57
1512810141.85,6920,4.94,71890.3,-10.31,-12.29,-12.15,0,*51
1512810143.08,6921,4.94,71892.3,-10.29,-12.39,-12.25,0,*5B
1512810144.34,6922,4.94,71890.8,-10.31,-12.15,-12.11,0,*58
1512810145.6,6923,4.94,71890.0,-10.31,-12.15,-11.97,0,*54
1512810146.82,6924,4.94,71890.5,-10.31,-12.43,-12.15,0,*59
1512810148.03,6925,4.94,71888.3,-10.31,-12.39,-12.29,0,*5A
1512810149.27,6926,4.94,71888.0,-10.31,-12.25,-12.15,0,*5B
1512810150.5,6927,4.94,71894.8,-10.31,-12.25,-12.07,0,*59
1512810151.74,6928,4.94,71890.3,-10.33,-12.43,-12.29,0,*58
1512810152.96,6929,4.94,71888.8,-10.31,-12.39,-12.15,0,*59
1512810154.23,6930,4.94,71892.8,-10.33,-12.29,-12.15,0,*52
1512810155.49,6931,4.94,71890.8,-10.31,-12.11,-12.07,0,*59
1512810156.72,6932,4.94,71888.5,-10.31,-12.29,-12.15,0,*52
1512810157.95,6933,4.94,71892.0,-10.31,-12.25,-12.15,0,*5F
1512810159.19,6934,4.94,71892.0,-10.31,-12.29,-12.11,0,*50
1512810160.45,6935,4.94,71894.3,-10.31,-12.15,-12.07,0,*59
1512810161.71,6936,4.94,71890.5,-10.31,-12.11,-11.97,0,*54
1512810162.97,6937,4.94,71888.0,-10.31,-12.15,-12.11,0,*5C
1512810164.23,6938,4.94,71896.5,-10.33,-12.29,-12.15,0,*5A
1512810165.49,6939,4.94,71892.8,-10.31,-12.11,-11.97,0,*5B
1512810166.75,6940,4.94,71890.8,-10.31,-12.15,-12.07,0,*5B
1512810167.98,6941,4.94,71894.0,-10.31,-12.25,-12.11,0,*5E
1512810169.22,6942,4.94,71890.3,-10.31,-12.29,-12.11,0,*51
1512810170.45,6943,4.94,71888.0,-10.33,-12.03,-12.03,0,*59
1512810171.71,6944,4.94,71890.0,-10.31,-12.07,-11.97,0,*56
1512810172.97,6945,4.94,71890.3,-10.31,-12.11,-12.07,0,*5A
1512810174.2,6946,4.94,71892.5,-10.31,-12.15,-12.03,0,*59
1512810175.47,6947,4.94,71888.5,-10.31,-11.97,-11.93,0,*5B
1512810176.69,6948,4.94,71888.8,-10.31,-12.39,-12.15,0,*5E
1512810177.93,6949,4.94,71888.3,-10.31,-12.29,-12.11,0,*5A
1512810179.2,6950,4.94,71888.5,-10.33,-12.21,-12.11,0,*58
1512810180.43,6951,4.94,71890.3,-10.31,-12.25,-12.11,0,*5F
1512810181.67,6952,4.94,71890.3,-10.31,-12.25,-12.11,0,*5C
1512810182.94,6953,4.94,71890.3,-10.33,-12.35,-12.21,0,*5D
1512810184.17,6954,4.94,71890.5,-10.31,-12.25,-11.97,0,*57
1512810185.43,6955,4.94,71892.8,-10.31,-12.15,-12.07,0,*5F
1512810186.69,6956,4.94,71894.3,-10.31,-12.15,-11.97,0,*56
1512810187.94,6957,4.94,71894.8,-10.31,-12.11,-11.97,0,*53
1512810189.2,6958,4.94,71896.3,-10.31,-12.11,-12.07,0,*56
1512810190.44,6959,4.94,71894.3,-10.31,-12.29,-12.11,0,*5B
1512810191.68,6960,4.94,71890.5,-10.33,-12.21,-12.03,0,*58
1512810192.89,6961,4.94,71894.3,-10.31,-12.25,-12.25,0,*5B
1512810194.13,6962,4.94,71888.0,-10.31,-12.29,-12.15,0,*57
1512810195.37,6963,4.94,71890.8,-10.29,-12.29,-12.25,0,*5C
1512810196.63,6964,4.94,71890.8,-10.33,-12.29,-12.15,0,*53
1512810197.87,6965,4.94,71892.8,-10.31,-12.25,-12.07,0,*5F
1512810199.11,6966,4.94,71890.3,-10.33,-12.21,-12.03,0,*5E
1512810200.37,6967,4.94,71890.3,-10.31,-12.07,-11.97,0,*57
1512810201.62,6968,4.94,71890.8,-10.31,-12.07,-11.97,0,*58
1512810202.86,6969,4.94,71894.0,-10.31,-12.15,-12.03,0,*54
1512810204.12,6970,4.94,71892.8,-10.31,-12.15,-11.97,0,*52
1512810205.38,6971,4.94,71892.0,-10.31,-11.97,-11.93,0,*5E
1512810206.64,6972,4.94,71890.3,-10.31,-11.97,-11.93,0,*5D
1512810207.9,6973,4.94,71888.0,-10.31,-12.15,-11.97,0,*51
1512810209.16,6974,4.94,71890.8,-10.31,-12.15,-12.07,0,*5C
1512810210.41,6975,4.94,71892.8,-10.31,-12.15,-12.15,0,*5E
1512810211.7,6976,4.94,71892.5,-10.29,-12.11,-12.07,0,*53
1512810212.97,6977,4.94,71890.8,-10.29,-12.29,-12.11,0,*5E
1512810214.26,6978,4.94,71892.0,-10.29,-12.11,-12.07,0,*5D
1512810215.52,6979,4.94,71890.8,-10.27,-12.07,-11.93,0,*5B
1512810216.81,6980,4.94,71888.3,-10.29,-12.15,-11.97,0,*54
1512810218.09,6981,4.94,71892.0,-10.29,-12.11,-11.97,0,*51
1512810219.35,6982,4.94,71890.8,-10.27,-12.07,-11.93,0,*5F
1512810220.62,6983,4.94,71892.3,-10.29,-12.25,-12.11,0,*59
1512810221.86,6984,4.94,71888.3,-10.29,-12.29,-12.29,0,*59
1512810223.1,6985,4.94,71894.8,-10.29,-12.29,-12.25,0,*54
1512810224.34,6986,4.94,71894.3,-10.29,-12.25,-12.25,0,*5B
1512810225.58,6987,4.94,71890.0,-10.29,-12.43,-12.39,0,*57
1512810226.81,6988,4.94,71890.5,-10.27,-12.35,-12.25,0,*5A
1512810228.08,6989,4.94,71890.3,-10.29,-12.25,-12.15,0,*57
1512810229.31,6990,4.94,71892.0,-10.31,-12.25,-12.15,0,*56
1512810230.57,6991,4.94,71888.3,-10.31,-12.15,-12.07,0,*57
1512810231.83,6992,4.94,71892.5,-10.31,-12.07,-11.97,0,*5D
1512810233.09,6993,4.94,71890.8,-10.29,-12.25,-12.15,0,*5C
1512810234.36,6994,4.94,71890.8,-10.29,-12.25,-12.11,0,*5F
1512810235.62,6995,4.94,71892.0,-10.29,-12.25,-12.07,0,*59
1512810236.91,6996,4.94,71890.5,-10.29,-12.11,-11.97,0,*57
1512810238.2,6997,4.94,71890.5,-10.29,-12.07,-11.97,0,*51
1512810239.49,6998,4.94,71890.0,-10.29,-12.11,-11.97,0,*59
1512810240.75,6999,4.94,71890.0,-10.31,-11.97,-11.93,0,*58
1512810242.04,7000,4.94,71888.5,-10.29,-12.07,-11.93,0,*53
1512810243.32,7001,4.94,71888.0,-10.29,-12.11,-11.97,0,*51
1512810244.61,7002,4.94,71890.8,-10.29,-12.15,-12.07,0,*5C
1512810245.87,7003,4.94,71890.0,-10.31,-11.97,-11.93,0,*53
1512810247.17,7004,4.94,71888.8,-10.29,-12.07,-11.93,0,*57
1512810248.45,7005,4.94,71890.0,-10.29,-12.07,-11.85,0,*51
1512810249.74,7006,4.94,71884.0,-10.29,-11.97,-11.85,0,*58
1512810250.97,7007,4.94,71884.8,-10.27,-12.03,-11.89,0,*55
1512810252.26,7008,4.94,71888.3,-10.29,-11.97,-11.93,0,*51
1512810253.5,7009,4.94,71886.8,-10.27,-12.03,-11.89,0,*5B
1512810254.76,7010,4.94,71888.3,-10.27,-12.07,-11.93,0,*5C
1512810256.04,7011,4.94,71890.5,-10.29,-11.97,-11.85,0,*5E
1512810257.34,7012,4.94,71888.0,-10.29,-12.07,-11.93,0,*50
1512810258.63,7013,4.94,71886.3,-10.29,-12.07,-11.93,0,*51
1512810259.89,7014,4.94,71884.8,-10.27,-12.07,-11.93,0,*58
1512810261.12,7015,4.94,71888.3,-10.27,-12.07,-12.03,0,*53
1512810262.41,7016,4.94,71892.0,-10.29,-12.07,-11.97,0,*50
1512810263.68,7017,4.94,71888.5,-10.27,-11.93,-11.89,0,*5E
1512810264.94,7018,4.94,71888.8,-10.27,-12.07,-11.93,0,*54
1512810266.17,7019,4.94,71884.5,-10.27,-12.03,-11.93,0,*51
1512810267.46,7020,4.94,71890.3,-10.29,-12.11,-11.97,0,*52
1512810268.75,7021,4.94,71888.3,-10.29,-12.07,-11.97,0,*54
1512810270.02,7022,4.94,71890.3,-10.27,-11.93,-11.93,0,*53
1512810271.28,7023,4.94,71892.5,-10.27,-11.93,-11.89,0,*59
1512810272.58,7024,4.94,71886.8,-10.29,-12.07,-11.93,0,*55
1512810273.81,7025,4.94,71888.0,-10.27,-12.03,-11.89,0,*55
1512810275.05,7026,4.94,71886.8,-10.27,-12.25,-12.07,0,*57
1512810276.31,7027,4.94,71888.0,-10.27,-12.07,-11.89,0,*53
1512810277.54,7028,4.94,71890.3,-10.27,-12.03,-11.89,0,*58
1512810278.77,7029,4.94,71888.5,-10.27,-12.03,-11.89,0,*59
1512810280.01,7030,4.94,71888.5,-10.27,-12.03,-11.93,0,*5A
1512810281.29,7031,4.94,71890.0,-10.25,-12.35,-12.11,0,*55
1512810282.55,7032,4.94,71888.8,-10.25,-12.39,-12.11,0,*5A
1512810283.82,7033,4.94,71888.5,-10.25,-12.21,-12.11,0,*52
1512810285.02,7034,4.94,71888.5,-10.27,-12.39,-12.25,0,*59
1512810286.26,7035,4.94,71892.5,-10.27,-12.35,-12.21,0,*50
1512810287.5,7036,4.94,71890.5,-10.27,-12.35,-12.21,0,*53
1512810288.73,7037,4.94,71894.5,-10.29,-12.43,-12.25,0,*59
1512810289.97,7038,4.94,71892.3,-10.27,-12.39,-12.35,0,*54
1512810291.18,7039,4.94,71892.0,-10.27,-12.25,-12.21,0,*5D
1512810292.42,7040,4.94,71890.3,-10.27,-12.21,-12.11,0,*54
1512810293.63,7041,4.94,71892.0,-10.27,-12.25,-12.21,0,*52
1512810294.87,7042,4.94,71888.5,-10.27,-12.35,-12.25,0,*54
1512810296.13,7043,4.94,71888.3,-10.27,-12.35,-12.11,0,*52
1512810297.36,7044,4.94,71894.8,-10.27,-12.25,-12.11,0,*54
1512810298.63,7045,4.94,71894.0,-10.25,-12.25,-12.11,0,*57
1512810299.89,7046,4.94,71892.0,-10.29,-12.25,-12.15,0,*5C
1512810301.13,7047,4.94,71890.8,-10.27,-12.35,-12.21,0,*55
1512810302.36,7048,4.94,71888.3,-10.27,-12.35,-12.21,0,*5A
1512810303.6,7049,4.94,71888.8,-10.27,-12.21,-12.07,0,*5A
1512810304.87,7050,4.94,71890.5,-10.27,-12.07,-11.93,0,*58
1512810306.1,7051,4.94,71890.0,-10.27,-12.11,-12.03,0,*54
1512810307.37,7052,4.94,71884.8,-10.29,-12.29,-12.11,0,*51
1512810308.63,7053,4.94,71892.3,-10.27,-12.11,-11.93,0,*5C
1512810309.86,7054,4.94,71894.3,-10.27,-12.11,-12.03,0,*51
1512810311.1,7055,4.94,71888.5,-10.27,-12.11,-12.03,0,*50
1512810312.34,7056,4.94,71892.5,-10.27,-12.11,-12.03,0,*53
1512810313.6,7057,4.94,71894.0,-10.27,-12.07,-11.93,0,*5F
1512810314.83,7058,4.94,71892.3,-10.27,-12.11,-12.03,0,*5D
1512810316.09,7059,4.94,71892.3,-10.27,-12.11,-12.07,0,*58
1512810317.36,7060,4.94,71894.0,-10.27,-11.93,-11.93,0,*55
1512810318.62,7061,4.94,71892.3,-10.27,-12.07,-11.93,0,*5A
1512810319.88,7062,4.94,71892.0,-10.27,-12.07,-11.93,0,*59
1512810321.12,7063,4.94,71888.0,-10.23,-12.03,-11.89,0,*53
1512810322.4,7064,4.94,71894.5,-10.25,-12.11,-12.07,0,*54
1512810323.66,7065,4.94,71892.3,-10.25,-12.11,-12.03,0,*51
1512810324.93,7066,4.94,71890.3,-10.25,-12.03,-11.93,0,*5B
1512810326.22,7067,4.94,71894.0,-10.25,-11.93,-11.93,0,*50
1512810327.48,7068,4.94,71888.5,-10.25,-12.11,-12.03,0,*5C
1512810328.77,7069,4.94,71894.5,-10.25,-12.11,-11.93,0,*57
1512810330.03,7070,4.94,71894.8,-10.25,-12.11,-12.03,0,*55
1512810331.3,7071,4.94,71890.5,-10.25,-12.21,-12.07,0,*53
1512810332.54,7072,4.94,71892.8,-10.23,-12.21,-12.15,0,*55
1512810333.8,7073,4.94,71894.8,-10.25,-12.25,-12.11,0,*52
1512810335.04,7074,4.94,71898.3,-10.25,-12.39,-12.21,0,*5B
1512810336.3,7075,4.94,71896.5,-10.25,-12.25,-12.11,0,*54
1512810337.57,7076,4.94,71892.8,-10.25,-12.21,-12.07,0,*54
1512810338.78,7077,4.94,71892.8,-10.23,-12.29,-12.03,0,*5F
1512810340.04,7078,4.94,71894.0,-10.25,-12.25,-12.07,0,*5E
1512810341.33,7079,4.94,71894.5,-10.25,-12.35,-12.11,0,*59
1512810342.59,7080,4.94,71894.8,-10.25,-12.25,-12.11,0,*5E
1512810343.88,7081,4.94,71890.5,-10.25,-12.35,-12.07,0,*59
1512810345.12,7082,4.94,71892.5,-10.23,-12.29,-12.07,0,*51
1512810346.38,7083,4.94,71894.8,-10.25,-12.21,-12.11,0,*59
1512810347.62,7084,4.94,71896.0,-10.27,-12.25,-12.07,0,*5F
1512810348.89,7085,4.94,71894.3,-10.25,-12.21,-12.07,0,*58
1512810350.16,7086,4.94,71896.5,-10.25,-12.21,-12.07,0,*5B
1512810351.42,7087,4.94,71894.5,-10.25,-12.21,-12.11,0,*5D
1512810352.69,7088,4.94,71898.0,-10.25,-12.21,-12.07,0,*55
1512810353.98,7089,4.94,71894.3,-10.25,-12.11,-12.07,0,*57
1512810355.26,7090,4.94,71892.8,-10.25,-12.35,-12.11,0,*5E
1512810356.5,7091,4.94,71898.8,-10.23,-12.15,-12.03,0,*58
1512810357.76,7092,4.94,71892.8,-10.25,-12.25,-12.11,0,*5D
1512810359.0,7093,4.94,71892.0,-10.25,-12.47,-12.25,0,*5F
1512810360.26,7094,4.94,71894.5,-10.25,-12.35,-12.21,0,*59
1512810361.48,7095,4.94,71892.0,-10.23,-12.29,-12.21,0,*53
1512810362.71,7096,4.94,71896.0,-10.25,-12.39,-12.21,0,*57
1512810363.97,7097,4.94,71894.0,-10.23,-12.07,-11.97,0,*53
1512810365.25,7098,4.94,71896.8,-10.25,-12.11,-12.11,0,*50
1512810366.49,7099,4.94,71896.3,-10.23,-12.25,-12.11,0,*50
1512810367.7,7100,4.94,71896.5,-10.23,-12.43,-12.29,0,*5A
1512810368.96,7101,4.94,71892.0,-10.25,-12.25,-12.11,0,*56
1512810370.23,7102,4.94,71894.8,-10.25,-12.35,-12.21,0,*57
1512810371.46,7103,4.94,71898.3,-10.23,-12.35,-12.21,0,*50
1512810372.69,7104,4.94,71896.3,-10.23,-12.43,-12.35,0,*53
1512810373.96,7105,4.94,71896.8,-10.25,-12.47,-12.35,0,*50
1512810375.19,7106,4.94,71896.0,-10.25,-12.47,-12.25,0,*52
1512810376.46,7107,4.94,71896.3,-10.25,-12.47,-12.35,0,*52
1512810377.72,7108,4.94,71892.0,-10.25,-12.35,-12.21,0,*5D
1512810378.98,7109,4.94,71894.5,-10.25,-12.47,-12.35,0,*5C
1512810380.22,7110,4.94,71892.0,-10.25,-12.47,-12.39,0,*58
1512810381.48,7111,4.94,71894.5,-10.25,-12.53,-12.47,0,*55
1512810382.72,7112,4.94,71896.5,-10.25,-12.25,-12.21,0,*57
1512810383.98,7113,4.94,71890.8,-10.25,-12.35,-12.25,0,*53
1512810385.22,7114,4.94,71894.3,-10.25,-12.39,-12.21,0,*5C
1512810386.45,7115,4.94,71892.0,-10.25,-12.39,-12.25,0,*59
1512810387.68,7116,4.94,71896.5,-10.25,-12.39,-12.25,0,*5A
1512810388.91,7117,4.94,71892.3,-10.25,-12.39,-12.25,0,*5B
1512810390.18,7118,4.94,71896.5,-10.25,-12.35,-12.21,0,*5C
1512810391.44,7119,4.94,71892.5,-10.25,-12.25,-12.07,0,*58
1512810392.68,7120,4.94,71898.0,-10.27,-12.25,-12.11,0,*57
1512810393.92,7121,4.94,71896.8,-10.27,-12.21,-12.07,0,*55
1512810395.18,7122,4.94,71898.0,-10.25,-12.35,-12.21,0,*55
1512810396.45,7123,4.94,71898.3,-10.25,-12.21,-12.11,0,*52
1512810397.69,7124,4.94,71894.0,-10.27,-12.53,-12.39,0,*58
1512810398.95,7125,4.94,71890.8,-10.25,-12.47,-12.35,0,*52
1512810400.18,7126,4.94,71892.3,-10.27,-12.39,-12.35,0,*5A
1512810401.42,7127,4.94,71892.5,-10.29,-12.39,-12.39,0,*59
1512810402.65,7128,4.94,71892.0,-10.27,-12.25,-12.11,0,*5F
1512810403.92,7129,4.94,71894.3,-10.27,-12.35,-12.11,0,*5F
1512810405.13,7130,4.94,71892.0,-10.27,-12.25,-12.25,0,*51
1512810406.36,7131,4.94,71894.0,-10.27,-12.35,-12.21,0,*55
1512810407.6,7132,4.94,71896.5,-10.27,-12.07,-12.03,0,*57
1512810408.81,7133,4.94,71892.0,-10.27,-12.21,-12.03,0,*52
1512810410.05,7134,4.94,71894.8,-10.27,-12.21,-12.07,0,*51
1512810411.31,7135,4.94,71892.8,-10.27,-12.11,-12.11,0,*54
1512810412.57,7136,4.94,71892.3,-10.27,-12.11,-12.07,0,*50
1512810413.81,7137,4.94,71894.5,-10.27,-12.21,-12.07,0,*52
1512810415.08,7138,4.94,71896.5,-10.27,-12.07,-11.93,0,*57
1512810416.34,7139,4.94,71894.8,-10.27,-12.07,-11.93,0,*56
1512810417.63,7140,4.94,71892.5,-10.29,-12.15,-12.07,0,*5B
1512810418.89,7141,4.94,71894.5,-10.27,-12.07,-11.93,0,*59
1512810420.16,7142,4.94,71890.5,-10.27,-11.93,-11.93,0,*54
1512810421.39,7143,4.94,71890.8,-10.27,-12.03,-11.93,0,*5F
1512810422.65,7144,4.94,71894.8,-10.27,-12.11,-11.93,0,*5B
1512810423.94,7145,4.94,71896.5,-10.25,-12.07,-11.93,0,*5F
1512810425.2,7146,4.94,71894.5,-10.25,-12.11,-12.03,0,*51
1512810426.44,7147,4.94,71892.5,-10.27,-12.07,-12.03,0,*55
1512810427.67,7148,4.94,71896.8,-10.27,-12.07,-12.03,0,*5A
1512810428.93,7149,4.94,71898.3,-10.27,-12.11,-12.07,0,*58
1512810430.17,7150,4.94,71892.8,-10.27,-12.21,-12.11,0,*54
1512810431.44,7151,4.94,71894.3,-10.27,-12.07,-11.93,0,*58
1512810432.7,7152,4.94,71888.8,-10.27,-12.11,-11.93,0,*5C
1512810433.96,7153,4.94,71892.0,-10.25,-12.03,-11.93,0,*5C
1512810435.25,7154,4.94,71892.5,-10.29,-11.97,-11.97,0,*5D
1512810436.5,7155,4.94,71898.3,-10.27,-11.93,-11.81,0,*51
1512810437.76,7156,4.94,71892.3,-10.27,-11.93,-11.77,0,*5B
1512810439.04,7157,4.94,71892.3,-10.25,-11.89,-11.81,0,*5A
1512810440.31,7158,4.94,71894.5,-10.25,-12.11,-12.03,0,*5E
1512810441.57,7159,4.94,71888.8,-10.23,-12.07,-11.89,0,*5F
1512810442.83,7160,4.94,71894.5,-10.25,-12.03,-11.93,0,*5C
1512810444.12,7161,4.94,71894.3,-10.25,-11.89,-11.89,0,*57
1512810445.4,7162,4.94,71892.0,-10.25,-11.93,-11.81,0,*57
1512810446.66,7163,4.94,71892.5,-10.23,-11.89,-11.73,0,*56
1512810447.91,7164,4.94,71892.3,-10.23,-11.89,-11.77,0,*55
1512810449.2,7165,4.94,71890.3,-10.25,-12.11,-11.93,0,*5A
1512810450.44,7166,4.94,71894.5,-10.23,-12.15,-12.03,0,*51
1512810451.7,7167,4.94,71892.5,-10.25,-12.21,-12.07,0,*55
1512810452.96,7168,4.94,71892.5,-10.23,-12.07,-11.97,0,*52
1512810454.22,7169,4.94,71890.5,-10.25,-12.03,-11.89,0,*5E
1512810455.48,7170,4.88,71886.5,-10.25,-12.03,-11.93,0,*5D
1512810456.72,7171,4.94,71890.8,-10.23,-12.03,-11.89,0,*51
1512810457.98,7172,4.94,71892.0,-10.23,-11.89,-11.89,0,*53
1512810459.21,7173,4.94,71890.8,-10.23,-12.03,-11.85,0,*5F
1512810460.43,7174,4.88,71886.5,-10.23,-12.03,-11.97,0,*5B
1512810461.7,7175,4.94,71888.5,-10.25,-12.07,-12.03,0,*56
1512810462.93,7176,4.94,71890.5,-10.23,-12.03,-11.89,0,*56
1512810464.17,7177,4.94,71890.5,-10.25,-12.25,-12.21,0,*54
1512810465.44,7178,4.94,71888.3,-10.25,-12.21,-12.07,0,*5B
1512810466.73,7179,4.94,71890.8,-10.25,-12.11,-11.93,0,*57
1512810467.96,7180,4.94,71890.8,-10.23,-12.03,-11.89,0,*5F
1512810469.22,7181,4.94,71890.5,-10.25,-12.03,-11.93,0,*53
1512810470.48,7182,4.94,71890.3,-10.23,-11.89,-11.85,0,*50
1512810471.74,7183,4.94,71890.3,-10.25,-12.03,-11.89,0,*5A
1512810473.0,7184,4.94,71888.3,-10.23,-11.97,-11.89,0,*55
1512810474.25,7185,4.94,71890.0,-10.23,-12.07,-11.97,0,*51
1512810475.51,7186,4.94,71890.8,-10.23,-11.89,-11.89,0,*58
1512810476.75,7187,4.88,71884.8,-10.23,-12.03,-11.89,0,*58
1512810478.04,7188,4.94,71888.8,-10.25,-12.07,-11.93,0,*5E
1512810479.29,7189,4.94,71888.3,-10.23,-11.97,-11.85,0,*54
1512810480.58,7190,4.94,71886.8,-10.21,-11.89,-11.85,0,*51
1512810481.86,7191,4.94,71888.3,-10.25,-11.93,-11.81,0,*5B
1512810483.12,7192,4.88,71884.5,-10.23,-11.89,-11.77,0,*5C
1512810484.37,7193,4.94,71892.0,-10.23,-11.89,-11.77,0,*5D
1512810485.63,7194,4.94,71888.3,-10.23,-11.97,-11.85,0,*58
1512810486.88,7195,4.94,71890.0,-10.23,-11.89,-11.85,0,*56
1512810488.14,7196,4.94,71890.5,-10.21,-12.03,-11.97,0,*55
1512810489.42,7197,4.94,71890.3,-10.21,-11.89,-11.77,0,*5B
1512810490.7,7198,4.94,71888.8,-10.21,-11.89,-11.85,0,*59
1512810491.96,7199,4.94,71884.8,-10.21,-12.03,-11.97,0,*5A
1512810493.24,7200,4.94,71888.8,-10.21,-11.97,-11.85,0,*54
1512810494.5,7201,4.94,71886.8,-10.21,-12.03,-11.85,0,*5B
1512810495.76,7202,4.94,71886.5,-10.19,-12.11,-11.93,0,*57
1512810497.02,7203,4.94,71886.5,-10.21,-12.03,-11.89,0,*55
1512810498.29,7204,4.94,71886.8,-10.21,-12.21,-12.07,0,*57
1512810499.55,7205,4.94,71890.0,-10.21,-12.29,-12.07,0,*5E
1512810500.84,7206,4.94,71884.5,-10.21,-12.07,-11.97,0,*5B
1512810502.12,7207,4.94,71884.3,-10.21,-12.15,-11.97,0,*59
1512810503.38,7208,4.94,71884.5,-10.21,-12.15,-12.03,0,*58
1512810504.64,7209,4.94,71884.3,-10.21,-12.15,-12.03,0,*59
1512810505.91,7210,4.94,71884.5,-10.21,-12.21,-12.15,0,*51
1512810507.15,7211,4.94,71884.3,-10.21,-12.21,-12.03,0,*57
1512810508.41,7212,4.94,71888.8,-10.21,-12.35,-12.21,0,*51
1512810509.65,7213,4.88,71882.5,-10.19,-12.11,-12.03,0,*5D
1512810510.94,7214,4.94,71888.5,-10.21,-12.07,-11.97,0,*58